QPF
0.01 0.01 0.01 0.02 0.03 0.03 0.04 0.04 0.04 0.03 0.02 0.02 0.03 0.03 0.04 0.04 0.05 0.05 0.05 0.05 0.05 0.06 0.06 0.05 0.05 0.05 0.06 0.07 0.08 0.10 0.12 0.14 0.15 0.14 0.13 0.10 0.08 0.07
0.00 0.00 0.00 0.01 0.02 0.02 0.03 0.04 0.04 0.03 0.02 0.02 0.02 0.04 0.04 0.04 0.04 0.04 0.05 0.06 0.07 0.07 0.07 0.06 0.05 0.05 0.05 0.06 0.08 0.08 0.09 0.10 0.11 0.13 0.12 0.10 0.09 0.09
0.00 0.01 0.00 0.01 0.01 0.01 0.02 0.03 0.04 0.03 0.03 0.02 0.02 0.03 0.04 0.04 0.04 0.04 0.05 0.05 0.06 0.06 0.05 0.04 0.04 0.05 0.06 0.07 0.07 0.07 0.07 0.09 0.11 0.12 0.11 0.09 0.08 0.07
0.01 0.01 0.00 0.01 0.01 0.01 0.02 0.03 0.04 0.04 0.05 0.05 0.04 0.04 0.04 0.05 0.05 0.05 0.06 0.05 0.04 0.05 0.04 0.03 0.03 0.04 0.05 0.06 0.06 0.07 0.08 0.09 0.10 0.11 0.10 0.10 0.09 0.08
0.01 0.02 0.02 0.03 0.02 0.02 0.02 0.02 0.03 0.04 0.05 0.06 0.07 0.07 0.06 0.04 0.04 0.03 0.03 0.03 0.04 0.05 0.04 0.03 0.02 0.02 0.02 0.03 0.05 0.06 0.07 0.08 0.09 0.09 0.09 0.09 0.08 0.07
0.01 0.02 0.05 0.07 0.05 0.05 0.04 0.03 0.04 0.04 0.05 0.06 0.07 0.08 0.07 0.05 0.04 0.03 0.03 0.03 0.03 0.04 0.04 0.03 0.02 0.02 0.02 0.02 0.02 0.03 0.04 0.05 0.06 0.06 0.05 0.05 0.05 0.04
0.00 0.01 0.02 0.04 0.06 0.06 0.05 0.04 0.04 0.04 0.04 0.05 0.05 0.06 0.06 0.05 0.04 0.03 0.02 0.02 0.02 0.02 0.03 0.02 0.02 0.01 0.01 0.01 0.01 0.01 0.01 0.02 0.02 0.02 0.02 0.02 0.02 0.01
0.00 0.00 0.01 0.02 0.03 0.05 0.06 0.06 0.04 0.03 0.04 0.05 0.04 0.04 0.04 0.03 0.03 0.03 0.02 0.02 0.02 0.02 0.02 0.02 0.01 0.01 0.01 0.00 0.01 0.01 0.01 0.01 0.01 0.01 0.01 0.01 0.01 0.00
0.01 0.01 0.01 0.01 0.02 0.02 0.03 0.04 0.05 0.04 0.04 0.05 0.05 0.03 0.03 0.03 0.02 0.02 0.02 0.02 0.02 0.02 0.02 0.02 0.01 0.02 0.01 0.01 0.01 0.01 0.01 0.01 0.01 0.01 0.01 0.00 0.00 0.00
0.01 0.01 0.01 0.01 0.02 0.03 0.03 0.02 0.03 0.03 0.04 0.04 0.05 0.03 0.03 0.03 0.03 0.02 0.03 0.03 0.02 0.03 0.03 0.02 0.02 0.01 0.01 0.01 0.01 0.01 0.01 0.01 0.01 0.00 0.00 0.00 0.00 0.00
0.01 0.01 0.01 0.01 0.02 0.03 0.03 0.03 0.03 0.02 0.03 0.05 0.06 0.05 0.04 0.04 0.04 0.03 0.03 0.03 0.02 0.02 0.02 0.01 0.01 0.01 0.00 0.00 0.01 0.01 0.01 0.00 0.00 0.00 0.00 0.00 0.00 0.00
0.01 0.01 0.01 0.01 0.02 0.03 0.03 0.03 0.02 0.02 0.02 0.03 0.05 0.06 0.04 0.04 0.04 0.03 0.04 0.03 0.02 0.02 0.01 0.01 0.01 0.00 0.00 0.00 0.00 0.00 0.00 0.00 0.00 0.00 0.00 0.00 0.00 0.00
0.03 0.02 0.01 0.02 0.02 0.02 0.02 0.02 0.02 0.02 0.02 0.03 0.03 0.04 0.05 0.04 0.03 0.02 0.03 0.03 0.02 0.02 0.01 0.01 0.01 0.00 0.00 0.00 0.00 0.00 0.00 0.00 0.00 0.00 0.00 0.00 0.00 0.00
0.03 0.03 0.02 0.02 0.02 0.02 0.02 0.02 0.02 0.03 0.02 0.03 0.03 0.04 0.04 0.03 0.02 0.02 0.02 0.02 0.02 0.02 0.01 0.00 0.00 0.00 0.00 0.00 0.00 0.00 0.00 0.00 0.00 0.00 0.00 0.00 0.00 0.00
0.02 0.02 0.02 0.02 0.02 0.01 0.02 0.02 0.02 0.02 0.02 0.03 0.03 0.04 0.03 0.02 0.02 0.02 0.01 0.01 0.01 0.01 0.01 0.00 0.00 0.00 0.00 0.00 0.00 0.00 0.00 0.00 0.00 0.00 0.00 0.00 0.00 0.00
0.02 0.02 0.01 0.01 0.01 0.01 0.02 0.02 0.02 0.02 0.02 0.02 0.02 0.03 0.04 0.03 0.03 0.02 0.01 0.01 0.01 0.00 0.00 0.00 0.00 0.00 0.00 0.00 0.00 0.00 0.00 0.00 0.00 0.00 0.00 0.00 0.00 0.00
0.02 0.02 0.01 0.01 0.01 0.01 0.02 0.01 0.01 0.02 0.02 0.02 0.02 0.02 0.03 0.03 0.02 0.01 0.00 0.00 0.00 0.00 0.00 0.00 0.00 0.00 0.00 0.00 0.00 0.00 0.00 0.00 0.00 0.00 0.00 0.00 0.00 0.00
0.02 0.02 0.03 0.02 0.02 0.02 0.02 0.02 0.02 0.02 0.01 0.01 0.01 0.01 0.01 0.01 0.01 0.00 0.00 0.00 0.00 0.00 0.00 0.00 0.00 0.00 0.00 0.00 0.00 0.00 0.00 0.00 0.00 0.00 0.00 0.00 0.00 0.00
0.02 0.03 0.03 0.03 0.02 0.02 0.03 0.03 0.02 0.02 0.01 0.01 0.01 0.00 0.00 0.00 0.00 0.00 0.00 0.00 0.00 0.00 0.00 0.00 0.00 0.00 0.00 0.00 0.00 0.00 0.00 0.00 0.00 0.00 0.00 0.00 0.00 0.00
0.02 0.03 0.03 0.03 0.02 0.02 0.04 0.03 0.02 0.02 0.01 0.01 0.01 0.00 0.00 0.00 0.00 0.00 0.00 0.00 0.00 0.00 0.00 0.00 0.00 0.00 0.00 0.00 0.00 0.00 0.00 0.00 0.00 0.00 0.00 0.00 0.00 0.00
0.01 0.02 0.02 0.03 0.02 0.03 0.04 0.03 0.02 0.02 0.01 0.01 0.00 0.00 0.00 0.00 0.00 0.00 0.00 0.00 0.00 0.00 0.00 0.00 0.00 0.00 0.00 0.00 0.00 0.00 0.00 0.00 0.00 0.00 0.00 0.00 0.00 0.00
0.00 0.01 0.01 0.01 0.02 0.02 0.02 0.02 0.02 0.01 0.01 0.00 0.00 0.00 0.00 0.00 0.00 0.00 0.00 0.00 0.00 0.00 0.00 0.00 0.00 0.00 0.00 0.00 0.00 0.00 0.00 0.00 0.00 0.00 0.00 0.00 0.00 0.00
0.00 0.01 0.01 0.01 0.01 0.01 0.01 0.02 0.01 0.01 0.00 0.00 0.00 0.00 0.00 0.00 0.00 0.00 0.00 0.00 0.00 0.00 0.00 0.00 0.00 0.00 0.00 0.00 0.00 0.00 0.00 0.00 0.00 0.00 0.00 0.00 0.00 0.00
MSLP
1020.67 1020.75 1020.75 1020.70 1020.63 1020.58 1020.59 1020.68 1020.87 1021.13 1021.43 1021.70 1021.87 1021.88 1021.70 1021.29 1020.69 1019.95 1019.15 1018.36 1017.70 1017.24 1017.01 1017.04 1017.32 1017.81 1018.45 1019.20 1019.98 1020.75 1021.50 1022.19 1022.82 1023.38 1023.89 1024.33 1024.70 1025.00
1020.74 1020.76 1020.70 1020.59 1020.46 1020.36 1020.34 1020.43 1020.64 1020.95 1021.32 1021.69 1021.99 1022.15 1022.12 1021.89 1021.46 1020.88 1020.22 1019.58 1019.03 1018.65 1018.47 1018.53 1018.80 1019.25 1019.82 1020.46 1021.13 1021.77 1022.37 1022.92 1023.40 1023.83 1024.21 1024.54 1024.81 1025.03
1020.80 1020.77 1020.66 1020.49 1020.32 1020.20 1020.16 1020.25 1020.49 1020.85 1021.29 1021.76 1022.17 1022.47 1022.59 1022.52 1022.27 1021.86 1021.37 1020.87 1020.44 1020.15 1020.02 1020.08 1020.31 1020.68 1021.15 1021.66 1022.18 1022.67 1023.11 1023.51 1023.85 1024.16 1024.43 1024.67 1024.87 1025.03
1020.85 1020.78 1020.63 1020.45 1020.26 1020.12 1020.09 1020.19 1020.45 1020.84 1021.34 1021.87 1022.37 1022.77 1023.03 1023.11 1023.01 1022.77 1022.44 1022.08 1021.77 1021.55 1021.46 1021.51 1021.69 1021.96 1022.30 1022.67 1023.02 1023.35 1023.64 1023.90 1024.12 1024.33 1024.52 1024.70 1024.85 1024.98
1020.89 1020.80 1020.64 1020.45 1020.27 1020.15 1020.13 1020.25 1020.52 1020.93 1021.44 1022.00 1022.54 1023.01 1023.35 1023.54 1023.57 1023.47 1023.28 1023.06 1022.85 1022.70 1022.64 1022.67 1022.79 1022.96 1023.17 1023.39 1023.59 1023.76 1023.92 1024.05 1024.19 1024.32 1024.47 1024.61 1024.75 1024.86
1020.93 1020.82 1020.67 1020.50 1020.35 1020.25 1020.26 1020.39 1020.66 1021.05 1021.55 1022.09 1022.63 1023.11 1023.50 1023.75 1023.88 1023.89 1023.82 1023.71 1023.60 1023.51 1023.47 1023.49 1023.54 1023.62 1023.71 1023.79 1023.85 1023.90 1023.94 1023.99 1024.05 1024.15 1024.27 1024.40 1024.54 1024.66
1020.94 1020.84 1020.71 1020.58 1020.47 1020.41 1020.44 1020.58 1020.83 1021.19 1021.63 1022.12 1022.62 1023.07 1023.45 1023.73 1023.91 1024.00 1024.03 1024.01 1023.98 1023.95 1023.94 1023.94 1023.95 1023.95 1023.94 1023.90 1023.85 1023.79 1023.75 1023.73 1023.75 1023.82 1023.93 1024.07 1024.22 1024.34
1020.93 1020.84 1020.75 1020.67 1020.60 1020.59 1020.64 1020.78 1021.00 1021.31 1021.68 1022.09 1022.51 1022.90 1023.24 1023.52 1023.72 1023.87 1023.96 1024.02 1024.05 1024.08 1024.09 1024.08 1024.05 1023.99 1023.90 1023.78 1023.64 1023.50 1023.39 1023.33 1023.32 1023.38 1023.49 1023.63 1023.78 1023.90
1020.91 1020.84 1020.79 1020.75 1020.74 1020.76 1020.84 1020.96 1021.15 1021.40 1021.69 1022.01 1022.33 1022.65 1022.94 1023.19 1023.40 1023.57 1023.71 1023.82 1023.90 1023.96 1023.99 1023.98 1023.93 1023.83 1023.68 1023.49 1023.30 1023.11 1022.96 1022.86 1022.83 1022.87 1022.96 1023.10 1023.23 1023.35
1020.90 1020.85 1020.83 1020.84 1020.87 1020.93 1021.02 1021.14 1021.29 1021.47 1021.69 1021.92 1022.16 1022.40 1022.63 1022.84 1023.04 1023.22 1023.38 1023.52 1023.63 1023.71 1023.75 1023.74 1023.66 1023.53 1023.35 1023.13 1022.90 1022.68 1022.49 1022.37 1022.31 1022.33 1022.40 1022.51 1022.61 1022.69
1020.94 1020.90 1020.91 1020.94 1021.01 1021.09 1021.19 1021.30 1021.42 1021.56 1021.70 1021.86 1022.03 1022.20 1022.38 1022.55 1022.73 1022.90 1023.06 1023.21 1023.33 1023.41 1023.45 1023.42 1023.34 1023.19 1022.99 1022.75 1022.50 1022.26 1022.06 1021.91 1021.83 1021.82 1021.85 1021.90 1021.96 1021.98
1021.04 1021.01 1021.03 1021.08 1021.16 1021.26 1021.35 1021.46 1021.55 1021.65 1021.76 1021.86 1021.98 1022.10 1022.23 1022.37 1022.51 1022.66 1022.81 1022.93 1023.04 1023.10 1023.12 1023.09 1022.99 1022.83 1022.62 1022.38 1022.13 1021.90 1021.69 1021.53 1021.42 1021.36 1021.34 1021.33 1021.32 1021.27
1021.23 1021.20 1021.21 1021.27 1021.35 1021.44 1021.53 1021.62 1021.70 1021.77 1021.84 1021.91 1021.99 1022.08 1022.17 1022.27 1022.39 1022.50 1022.61 1022.70 1022.77 1022.81 1022.80 1022.74 1022.63 1022.48 1022.28 1022.05 1021.82 1021.60 1021.39 1021.22 1021.09 1020.98 1020.90 1020.82 1020.72 1020.60
1021.50 1021.45 1021.46 1021.50 1021.56 1021.64 1021.71 1021.78 1021.83 1021.89 1021.94 1021.98 1022.04 1022.09 1022.16 1022.23 1022.30 1022.37 1022.44 1022.49 1022.51 1022.51 1022.47 1022.39 1022.28 1022.13 1021.96 1021.76 1021.56 1021.36 1021.17 1020.99 1020.83 1020.68 1020.53 1020.37 1020.18 1019.97
1021.83 1021.77 1021.74 1021.76 1021.79 1021.83 1021.87 1021.91 1021.94 1021.97 1022.00 1022.03 1022.07 1022.10 1022.14 1022.18 1022.21 1022.24 1022.25 1022.25 1022.23 1022.19 1022.12 1022.04 1021.93 1021.80 1021.65 1021.50 1021.33 1021.16 1020.99 1020.81 1020.62 1020.42 1020.20 1019.96 1019.69 1019.39
1022.18 1022.09 1022.04 1022.01 1022.00 1022.00 1022.00 1022.00 1022.00 1022.00 1022.01 1022.02 1022.03 1022.05 1022.06 1022.07 1022.07 1022.05 1022.02 1021.98 1021.92 1021.85 1021.77 1021.68 1021.58 1021.48 1021.37 1021.26 1021.13 1020.99 1020.83 1020.64 1020.42 1020.17 1019.89 1019.56 1019.21 1018.83
1022.49 1022.39 1022.30 1022.23 1022.17 1022.12 1022.07 1022.03 1021.99 1021.96 1021.94 1021.93 1021.92 1021.91 1021.90 1021.88 1021.85 1021.80 1021.74 1021.66 1021.58 1021.49 1021.41 1021.33 1021.25 1021.18 1021.11 1021.03 1020.93 1020.81 1020.65 1020.44 1020.19 1019.88 1019.53 1019.13 1018.69 1018.24
1022.73 1022.60 1022.49 1022.38 1022.27 1022.17 1022.07 1021.97 1021.89 1021.83 1021.78 1021.74 1021.71 1021.68 1021.65 1021.61 1021.56 1021.50 1021.42 1021.33 1021.24 1021.15 1021.08 1021.01 1020.96 1020.92 1020.87 1020.81 1020.72 1020.59 1020.42 1020.18 1019.88 1019.51 1019.08 1018.61 1018.11 1017.58
1022.85 1022.71 1022.57 1022.42 1022.27 1022.12 1021.98 1021.84 1021.73 1021.63 1021.55 1021.48 1021.44 1021.39 1021.35 1021.30 1021.24 1021.17 1021.09 1021.01 1020.93 1020.85 1020.79 1020.75 1020.71 1020.68 1020.64 1020.58 1020.48 1020.32 1020.11 1019.82 1019.46 1019.03 1018.55 1018.01 1017.44 1016.87
1022.83 1022.69 1022.53 1022.35 1022.17 1021.99 1021.81 1021.64 1021.49 1021.37 1021.27 1021.19 1021.13 1021.08 1021.03 1020.98 1020.92 1020.86 1020.79 1020.73 1020.66 1020.61 1020.56 1020.53 1020.50 1020.46 1020.41 1020.32 1020.19 1019.99 1019.72 1019.38 1018.95 1018.47 1017.92 1017.33 1016.73 1016.12
1022.67 1022.52 1022.35 1022.16 1021.96 1021.75 1021.55 1021.36 1021.20 1021.06 1020.95 1020.87 1020.81 1020.76 1020.72 1020.68 1020.64 1020.59 1020.54 1020.50 1020.45 1020.41 1020.38 1020.34 1020.30 1020.25 1020.16 1020.03 1019.84 1019.59 1019.26 1018.85 1018.37 1017.84 1017.25 1016.63 1016.00 1015.38
1022.37 1022.21 1022.04 1021.84 1021.63 1021.41 1021.21 1021.02 1020.86 1020.72 1020.62 1020.54 1020.49 1020.45 1020.43 1020.40 1020.38 1020.36 1020.33 1020.30 1020.28 1020.25 1020.21 1020.17 1020.10 1020.01 1019.88 1019.69 1019.45 1019.13 1018.74 1018.28 1017.76 1017.19 1016.58 1015.95 1015.32 1014.69
1021.94 1021.77 1021.59 1021.39 1021.18 1020.97 1020.78 1020.60 1020.46 1020.34 1020.26 1020.20 1020.17 1020.15 1020.15 1020.14 1020.14 1020.14 1020.13 1020.12 1020.10 1020.07 1020.03 1019.96 1019.87 1019.73 1019.55 1019.31 1019.00 1018.63 1018.20 1017.70 1017.16 1016.58 1015.97 1015.34 1014.71 1014.09
Thickness
5638 5640 5641 5643 5644 5645 5645 5645 5644 5641 5640 5639 5639 5641 5642 5643 5643 5644 5644 5644 5644 5643 5642 5640 5639 5637 5635 5633 5630 5628 5625 5622 5619 5614 5611 5608 5605 5602
5630 5632 5633 5635 5636 5637 5638 5639 5639 5637 5635 5632 5631 5633 5633 5634 5635 5635 5636 5636 5635 5634 5632 5631 5629 5627 5625 5623 5621 5619 5617 5614 5610 5606 5603 5600 5597 5593
5621 5623 5625 5626 5628 5629 5630 5631 5631 5631 5628 5625 5624 5624 5624 5624 5625 5625 5625 5625 5624 5623 5622 5621 5619 5617 5616 5614 5612 5610 5608 5605 5601 5598 5596 5593 5590 5586
5611 5614 5616 5618 5619 5621 5622 5623 5623 5623 5621 5618 5616 5615 5615 5615 5615 5615 5615 5614 5613 5612 5611 5610 5608 5607 5606 5605 5603 5601 5599 5596 5593 5590 5588 5586 5583 5579
5601 5604 5607 5609 5610 5612 5614 5614 5615 5615 5614 5612 5609 5607 5606 5606 5605 5604 5604 5603 5602 5601 5600 5599 5598 5597 5597 5596 5594 5593 5591 5589 5586 5583 5580 5578 5576 5573
5591 5594 5597 5599 5601 5603 5605 5605 5606 5605 5604 5603 5601 5598 5597 5596 5596 5594 5593 5592 5592 5592 5591 5590 5589 5588 5588 5587 5586 5585 5583 5582 5580 5577 5575 5572 5570 5569
5582 5584 5587 5590 5593 5594 5596 5596 5597 5596 5596 5594 5592 5590 5588 5587 5587 5586 5585 5583 5583 5584 5583 5582 5581 5581 5581 5581 5580 5579 5578 5577 5575 5573 5571 5569 5567 5565
5572 5575 5577 5580 5583 5585 5587 5588 5589 5589 5588 5587 5585 5584 5582 5581 5580 5581 5579 5577 5576 5577 5576 5576 5576 5576 5576 5576 5576 5575 5574 5573 5571 5570 5568 5566 5565 5563
5563 5565 5568 5570 5572 5575 5577 5579 5580 5581 5582 5581 5580 5579 5578 5578 5576 5575 5574 5574 5573 5574 5571 5570 5571 5571 5572 5573 5572 5572 5571 5570 5569 5567 5566 5565 5564 5562
5554 5556 5557 5560 5563 5565 5567 5569 5571 5572 5574 5575 5576 5575 5574 5574 5573 5573 5571 5570 5569 5569 5569 5566 5567 5568 5570 5570 5570 5570 5569 5568 5567 5566 5565 5564 5563 5562
5545 5547 5549 5551 5554 5556 5559 5560 5562 5564 5566 5567 5568 5569 5569 5569 5569 5568 5567 5566 5564 5564 5565 5564 5564 5564 5566 5568 5569 5569 5568 5567 5567 5566 5565 5564 5563 5561
5537 5539 5541 5544 5546 5549 5551 5552 5554 5556 5559 5560 5561 5563 5564 5565 5566 5566 5565 5563 5562 5561 5563 5562 5562 5561 5562 5566 5568 5568 5568 5568 5567 5566 5565 5565 5563 5560
5530 5532 5534 5537 5540 5542 5544 5546 5548 5550 5552 5554 5555 5557 5560 5562 5563 5564 5564 5563 5562 5562 5564 5562 5561 5559 5559 5561 5564 5567 5567 5567 5567 5566 5566 5565 5564 5561
5525 5527 5529 5532 5534 5537 5539 5541 5543 5546 5547 5549 5551 5554 5556 5558 5560 5562 5563 5563 5564 5564 5565 5564 5562 5560 5559 5558 5561 5564 5566 5567 5566 5566 5566 5566 5565 5563
5521 5523 5526 5528 5530 5533 5535 5538 5540 5542 5544 5546 5548 5551 5553 5556 5558 5560 5561 5561 5562 5564 5564 5565 5564 5562 5560 5559 5560 5562 5563 5566 5567 5566 5566 5565 5565 5564
5519 5521 5523 5526 5528 5530 5533 5535 5538 5540 5541 5544 5547 5549 5552 5554 5555 5557 5558 5558 5559 5561 5565 5565 5565 5564 5562 5562 5561 5561 5562 5563 5566 5566 5565 5565 5565 5564
5517 5519 5521 5523 5525 5528 5530 5533 5536 5539 5541 5543 5545 5547 5550 5552 5554 5556 5556 5557 5557 5558 5561 5565 5566 5565 5565 5563 5562 5563 5563 5564 5566 5566 5564 5562 5564 5564
5517 5517 5519 5521 5524 5527 5529 5532 5535 5538 5541 5543 5545 5547 5549 5551 5553 5555 5556 5556 5557 5558 5559 5561 5562 5562 5562 5565 5566 5565 5565 5565 5566 5565 5562 5560 5561 5565
5517 5519 5520 5522 5525 5528 5530 5532 5535 5538 5541 5544 5546 5548 5550 5552 5553 5555 5556 5557 5557 5558 5560 5561 5560 5559 5558 5560 5567 5569 5566 5566 5565 5564 5562 5560 5559 5562
5519 5520 5522 5525 5527 5529 5532 5534 5537 5540 5542 5545 5547 5549 5551 5552 5554 5555 5556 5557 5558 5559 5560 5561 5561 5561 5560 5562 5564 5568 5570 5566 5564 5563 5563 5562 5560 5562
5522 5524 5526 5529 5531 5534 5536 5538 5540 5542 5545 5547 5549 5551 5552 5554 5555 5556 5557 5559 5559 5560 5560 5562 5566 5567 5566 5564 5562 5565 5569 5570 5567 5564 5562 5559 5557 5556
5527 5528 5531 5534 5536 5538 5540 5542 5544 5546 5548 5550 5551 5553 5555 5556 5557 5558 5559 5560 5561 5561 5563 5565 5567 5567 5565 5563 5563 5564 5565 5568 5568 5566 5563 5560 5554 5552
5534 5535 5537 5539 5541 5543 5545 5546 5548 5549 5551 5553 5555 5557 5558 5559 5560 5561 5561 5562 5563 5563 5564 5564 5565 5565 5564 5564 5562 5562 5564 5564 5563 5562 5562 5562 5559 5556